{"data":{"norad_id":57143,"intl_designator":"2023-090AU","name":"STARLINK-5358","alt_names":[],"object_type":"PAYLOAD","status":"ACTIVE","operator":null,"country":"US","launch_date":"2023-06-23","launch_site_code":"AFETR","launch_vehicle":null,"mission":null,"orbit_class":"UNKNOWN","rcs_meters":null,"size_class":null,"mass_kg":null,"dimensions":null,"purposes":["comms"],"wikipedia_slug":null,"has_3d_model":false,"image_url":null,"decayed_at":null,"tle_current":{"epoch":"2026-05-25T04:17:31.908192Z","epoch_age_seconds":53630,"freshness":"FRESH","line1":"1 57143U 23090AU  26145.17884153  .00000305  00000+0  20610-4 0  9999","line2":"2 57143  43.0029 191.1826 0001908 297.4128  62.6529 15.27576183162058","mean_motion":15.27576183,"eccentricity":0.0001908,"inclination_deg":43.0029,"raan_deg":191.1826,"arg_perigee_deg":297.4128,"mean_anomaly_deg":62.6529,"bstar":2.061e-5,"rev_number":16205,"period_min":94.266984260778,"perigee_km":481.75140904674,"apogee_km":484.36964202248,"semimajor_km":6861.1975255346,"source":"CELESTRAK","updated_at":"2026-05-25T13:38:18.248016Z"}}}